Time,TemperatureF,DewpointF,PressureIn,WindDirection,WindDirectionDegrees,WindSpeedMPH,WindSpeedGustMPH,Humidity,HourlyPrecipIn,Conditions,Clouds,dailyrainin,SoftwareType,DateUTC
2013-08-31 00:03:00,87.1,51.8,28.39,SE,135,3.0,4.0,30,0.00,,,0.00,meteohub,2013-08-31 05:03:00,
2013-08-31 00:08:00,87.1,51.8,28.39,East,90,1.0,4.0,30,0.00,,,0.00,meteohub,2013-08-31 05:08:00,
2013-08-31 00:13:00,86.9,52.7,28.39,SE,135,2.0,5.0,31,0.00,,,0.00,meteohub,2013-08-31 05:13:00,
2013-08-31 00:18:00,86.4,53.1,28.39,East,90,1.0,5.0,32,0.00,,,0.00,meteohub,2013-08-31 05:18:00,
2013-08-31 00:23:00,86.2,53.8,28.39,SW,225,1.0,5.0,33,0.00,,,0.00,meteohub,2013-08-31 05:23:00,
2013-08-31 00:28:00,86.0,53.6,28.40,SE,135,1.0,5.0,33,0.00,,,0.00,meteohub,2013-08-31 05:28:00,
2013-08-31 00:33:00,85.6,53.2,28.39,South,180,1.0,2.0,33,0.00,,,0.00,meteohub,2013-08-31 05:33:00,
2013-08-31 00:38:00,85.3,53.8,28.39,SE,135,2.0,3.0,34,0.00,,,0.00,meteohub,2013-08-31 05:38:00,
2013-08-31 00:43:00,85.3,53.8,28.40,SE,135,1.0,4.0,34,0.00,,,0.00,meteohub,2013-08-31 05:43:00,
2013-08-31 00:48:00,85.3,53.8,28.40,North,0,1.0,4.0,34,0.00,,,0.00,meteohub,2013-08-31 05:48:00,
2013-08-31 00:53:00,84.7,53.2,28.40,East,90,1.0,4.0,34,0.00,,,0.00,meteohub,2013-08-31 05:53:00,
2013-08-31 00:58:00,84.9,53.4,28.40,East,90,2.0,3.0,34,0.00,,,0.00,meteohub,2013-08-31 05:58:00,
2013-08-31 01:03:00,84.9,53.4,28.40,SE,135,1.0,2.0,34,0.00,,,0.00,meteohub,2013-08-31 06:03:00,
2013-08-31 01:08:00,84.9,53.4,28.40,East,90,1.0,2.0,34,0.00,,,0.00,meteohub,2013-08-31 06:08:00,
2013-08-31 01:13:00,84.7,54.1,28.40,East,90,1.0,2.0,35,0.00,,,0.00,meteohub,2013-08-31 06:13:00,
2013-08-31 01:18:00,84.4,53.8,28.40,SE,135,1.0,2.0,35,0.00,,,0.00,meteohub,2013-08-31 06:18:00,
2013-08-31 01:23:00,84.4,53.8,28.40,NE,45,1.0,2.0,35,0.00,,,0.00,meteohub,2013-08-31 06:23:00,
2013-08-31 01:29:00,84.2,53.6,28.40,SE,135,3.0,3.0,35,0.00,,,0.00,meteohub,2013-08-31 06:29:00,
2013-08-31 01:34:00,84.4,53.8,28.40,SW,225,4.0,4.0,35,0.00,,,0.00,meteohub,2013-08-31 06:34:00,
2013-08-31 01:39:00,84.2,53.6,28.40,SE,135,1.0,4.0,35,0.00,,,0.00,meteohub,2013-08-31 06:39:00,
2013-08-31 01:44:00,84.2,54.3,28.40,South,180,1.0,4.0,36,0.00,,,0.00,meteohub,2013-08-31 06:44:00,
2013-08-31 01:49:00,84.2,54.3,28.40,East,90,1.0,4.0,36,0.00,,,0.00,meteohub,2013-08-31 06:49:00,
2013-08-31 01:54:00,84.2,54.3,28.40,East,90,1.0,4.0,36,0.00,,,0.00,meteohub,2013-08-31 06:54:00,
2013-08-31 01:59:00,83.8,54.0,28.40,East,90,2.0,2.0,36,0.00,,,0.00,meteohub,2013-08-31 06:59:00,
2013-08-31 02:04:00,83.8,54.0,28.40,SE,135,1.0,4.0,36,0.00,,,0.00,meteohub,2013-08-31 07:04:00,
2013-08-31 02:09:00,84.0,54.9,28.40,SE,135,2.0,4.0,37,0.00,,,0.00,meteohub,2013-08-31 07:09:00,
2013-08-31 02:14:00,83.8,54.9,28.40,East,90,1.0,4.0,37,0.00,,,0.00,meteohub,2013-08-31 07:14:00,
2013-08-31 02:19:00,83.8,54.9,28.40,SE,135,1.0,2.0,37,0.00,,,0.00,meteohub,2013-08-31 07:19:00,
2013-08-31 02:24:00,84.0,54.9,28.40,East,90,1.0,2.0,37,0.00,,,0.00,meteohub,2013-08-31 07:24:00,
2013-08-31 02:29:00,83.5,54.5,28.40,SE,135,1.0,2.0,37,0.00,,,0.00,meteohub,2013-08-31 07:29:00,
2013-08-31 02:34:00,83.5,55.2,28.40,SE,135,1.0,2.0,38,0.00,,,0.00,meteohub,2013-08-31 07:34:00,
2013-08-31 02:39:00,83.3,55.0,28.40,NE,45,1.0,2.0,38,0.00,,,0.00,meteohub,2013-08-31 07:39:00,
2013-08-31 02:44:00,83.1,54.9,28.40,East,90,1.0,2.0,38,0.00,,,0.00,meteohub,2013-08-31 07:44:00,
2013-08-31 02:49:00,82.8,54.5,28.40,East,90,1.0,2.0,38,0.00,,,0.00,meteohub,2013-08-31 07:49:00,
2013-08-31 02:54:00,82.9,54.7,28.40,East,90,1.0,2.0,38,0.00,,,0.00,meteohub,2013-08-31 07:54:00,
2013-08-31 02:59:00,82.2,54.9,28.40,SE,135,1.0,1.0,39,0.00,,,0.00,meteohub,2013-08-31 07:59:00,
2013-08-31 03:04:00,82.6,55.0,28.40,East,90,1.0,1.0,39,0.00,,,0.00,meteohub,2013-08-31 08:04:00,
2013-08-31 03:09:00,82.4,55.0,28.40,East,90,1.0,1.0,39,0.00,,,0.00,meteohub,2013-08-31 08:09:00,
2013-08-31 03:14:00,82.0,54.7,28.40,SE,135,1.0,4.0,39,0.00,,,0.00,meteohub,2013-08-31 08:14:00,
2013-08-31 03:19:00,81.7,55.0,28.40,SE,135,1.0,4.0,40,0.00,,,0.00,meteohub,2013-08-31 08:19:00,
2013-08-31 03:24:00,81.5,55.6,28.40,NE,45,1.0,4.0,41,0.00,,,0.00,meteohub,2013-08-31 08:24:00,
2013-08-31 03:29:00,81.5,55.6,28.40,East,90,1.0,3.0,41,0.00,,,0.00,meteohub,2013-08-31 08:29:00,
2013-08-31 03:34:00,81.5,55.6,28.40,SE,135,0.0,2.0,41,0.00,,,0.00,meteohub,2013-08-31 08:34:00,
2013-08-31 03:39:00,80.8,54.9,28.40,SE,135,1.0,2.0,41,0.00,,,0.00,meteohub,2013-08-31 08:39:00,
2013-08-31 03:44:00,80.8,54.9,28.40,East,90,1.0,2.0,41,0.00,,,0.00,meteohub,2013-08-31 08:44:00,
2013-08-31 03:49:00,80.6,55.4,28.40,SE,135,1.0,1.0,42,0.00,,,0.00,meteohub,2013-08-31 08:49:00,
2013-08-31 03:54:00,80.8,55.6,28.40,East,90,0.0,1.0,42,0.00,,,0.00,meteohub,2013-08-31 08:54:00,
2013-08-31 03:59:00,80.8,55.6,28.40,SE,135,1.0,1.0,42,0.00,,,0.00,meteohub,2013-08-31 08:59:00,
2013-08-31 04:04:00,80.6,55.4,28.40,East,90,1.0,1.0,42,0.00,,,0.00,meteohub,2013-08-31 09:04:00,
2013-08-31 04:09:00,80.4,55.2,28.40,SE,135,1.0,1.0,42,0.00,,,0.00,meteohub,2013-08-31 09:09:00,
2013-08-31 04:14:00,80.2,55.8,28.40,East,90,1.0,1.0,43,0.00,,,0.00,meteohub,2013-08-31 09:14:00,
2013-08-31 04:19:00,80.2,55.8,28.40,East,90,1.0,1.0,43,0.00,,,0.00,meteohub,2013-08-31 09:19:00,
2013-08-31 04:24:00,79.9,55.4,28.40,East,90,1.0,1.0,43,0.00,,,0.00,meteohub,2013-08-31 09:24:00,
2013-08-31 04:29:00,79.7,55.2,28.40,East,90,0.0,1.0,43,0.00,,,0.00,meteohub,2013-08-31 09:29:00,
2013-08-31 04:34:00,79.9,55.4,28.40,East,90,1.0,1.0,43,0.00,,,0.00,meteohub,2013-08-31 09:34:00,
2013-08-31 04:39:00,79.7,55.9,28.40,East,90,1.0,1.0,44,0.00,,,0.00,meteohub,2013-08-31 09:39:00,
2013-08-31 04:44:00,79.7,55.9,28.40,East,90,0.0,1.0,44,0.00,,,0.00,meteohub,2013-08-31 09:44:00,
2013-08-31 04:49:00,79.7,55.9,28.40,ESE,113,1.0,1.0,44,0.00,,,0.00,meteohub,2013-08-31 09:49:00,
2013-08-31 04:54:00,79.5,55.8,28.40,East,90,0.0,1.0,44,0.00,,,0.00,meteohub,2013-08-31 09:54:00,
2013-08-31 04:59:00,79.5,56.3,28.40,East,90,1.0,1.0,45,0.00,,,0.00,meteohub,2013-08-31 09:59:00,
2013-08-31 05:04:00,79.3,56.1,28.40,East,90,1.0,1.0,45,0.00,,,0.00,meteohub,2013-08-31 10:04:00,
2013-08-31 05:09:00,79.0,55.8,28.40,East,90,0.0,1.0,45,0.00,,,0.00,meteohub,2013-08-31 10:09:00,
2013-08-31 05:14:00,78.6,56.1,28.40,East,90,0.0,1.0,46,0.00,,,0.00,meteohub,2013-08-31 10:14:00,
2013-08-31 05:19:00,78.6,56.1,28.40,East,90,0.0,1.0,46,0.00,,,0.00,meteohub,2013-08-31 10:19:00,
2013-08-31 05:24:00,78.4,56.5,28.40,NE,45,0.0,1.0,47,0.00,,,0.00,meteohub,2013-08-31 10:24:00,
2013-08-31 05:29:00,77.9,56.7,28.40,East,90,0.0,1.0,48,0.00,,,0.00,meteohub,2013-08-31 10:29:00,
2013-08-31 05:34:00,77.4,56.7,28.40,East,90,0.0,1.0,49,0.00,,,0.00,meteohub,2013-08-31 10:34:00,
2013-08-31 05:39:00,77.0,56.3,28.40,East,90,0.0,1.0,49,0.00,,,0.00,meteohub,2013-08-31 10:39:00,
2013-08-31 05:44:00,76.8,56.8,28.40,East,90,0.0,0.0,50,0.00,,,0.00,meteohub,2013-08-31 10:44:00,
2013-08-31 05:49:00,76.6,56.7,28.40,East,90,0.0,0.0,50,0.00,,,0.00,meteohub,2013-08-31 10:49:00,
2013-08-31 05:54:00,76.6,56.7,28.40,NE,45,0.0,0.0,50,0.00,,,0.00,meteohub,2013-08-31 10:54:00,
2013-08-31 05:59:00,76.3,56.8,28.40,East,90,0.0,0.0,51,0.00,,,0.00,meteohub,2013-08-31 10:59:00,
2013-08-31 06:04:00,76.1,56.7,28.40,East,90,0.0,0.0,51,0.00,,,0.00,meteohub,2013-08-31 11:04:00,
2013-08-31 06:09:00,75.9,56.5,28.41,East,90,0.0,1.0,51,0.00,,,0.00,meteohub,2013-08-31 11:09:00,
2013-08-31 06:15:00,76.1,56.7,28.41,NE,45,0.0,1.0,51,0.00,,,0.00,meteohub,2013-08-31 11:15:00,
2013-08-31 06:20:00,76.1,57.2,28.41,NE,45,0.0,1.0,52,0.00,,,0.00,meteohub,2013-08-31 11:20:00,
2013-08-31 06:25:00,75.6,56.7,28.41,East,90,1.0,0.0,52,0.00,,,0.00,meteohub,2013-08-31 11:25:00,
2013-08-31 06:30:00,75.7,57.4,28.41,East,90,0.0,1.0,53,0.00,,,0.00,meteohub,2013-08-31 11:30:00,
2013-08-31 06:35:00,75.4,57.0,28.41,SE,135,0.0,1.0,53,0.00,,,0.00,meteohub,2013-08-31 11:35:00,
2013-08-31 06:40:00,75.4,57.0,28.41,East,90,1.0,1.0,53,0.00,,,0.00,meteohub,2013-08-31 11:40:00,
2013-08-31 06:45:00,75.4,57.0,28.41,East,90,0.0,1.0,53,0.00,,,0.00,meteohub,2013-08-31 11:45:00,
2013-08-31 06:50:00,75.4,57.0,28.41,East,90,0.0,1.0,53,0.00,,,0.00,meteohub,2013-08-31 11:50:00,
2013-08-31 06:55:00,75.0,56.7,28.41,East,90,0.0,1.0,53,0.00,,,0.00,meteohub,2013-08-31 11:55:00,
2013-08-31 07:00:00,75.2,57.4,28.41,East,90,0.0,1.0,54,0.00,,,0.00,meteohub,2013-08-31 12:00:00,
2013-08-31 07:05:00,74.7,56.8,28.41,East,90,0.0,0.0,54,0.00,,,0.00,meteohub,2013-08-31 12:05:00,
2013-08-31 07:10:00,74.5,56.7,28.41,East,90,0.0,0.0,54,0.00,,,0.00,meteohub,2013-08-31 12:10:00,
2013-08-31 07:15:00,74.5,57.2,28.41,East,90,0.0,0.0,55,0.00,,,0.00,meteohub,2013-08-31 12:15:00,
2013-08-31 07:20:00,74.5,57.2,28.42,East,90,0.0,0.0,55,0.00,,,0.00,meteohub,2013-08-31 12:20:00,
2013-08-31 07:25:00,74.7,57.4,28.42,East,90,0.0,0.0,55,0.00,,,0.00,meteohub,2013-08-31 12:25:00,
2013-08-31 07:30:00,74.5,57.2,28.42,East,90,0.0,0.0,55,0.00,,,0.00,meteohub,2013-08-31 12:30:00,
2013-08-31 07:35:00,75.0,57.7,28.43,East,90,0.0,0.0,55,0.00,,,0.00,meteohub,2013-08-31 12:35:00,
2013-08-31 07:40:00,75.4,58.1,28.43,East,90,0.0,0.0,55,0.00,,,0.00,meteohub,2013-08-31 12:40:00,
2013-08-31 07:45:00,75.4,57.6,28.43,East,90,0.0,1.0,54,0.00,,,0.00,meteohub,2013-08-31 12:45:00,
2013-08-31 07:50:00,76.1,58.3,28.43,East,90,0.0,1.0,54,0.00,,,0.00,meteohub,2013-08-31 12:50:00,
2013-08-31 07:55:00,76.1,58.3,28.43,East,90,0.0,1.0,54,0.00,,,0.00,meteohub,2013-08-31 12:55:00,
2013-08-31 08:00:00,76.8,58.5,28.43,East,90,1.0,1.0,53,0.00,,,0.00,meteohub,2013-08-31 13:00:00,
2013-08-31 08:05:00,77.0,58.6,28.43,East,90,0.0,1.0,53,0.00,,,0.00,meteohub,2013-08-31 13:05:00,
2013-08-31 08:10:00,77.7,58.6,28.43,East,90,0.0,1.0,52,0.00,,,0.00,meteohub,2013-08-31 13:10:00,
2013-08-31 08:15:00,78.3,58.6,28.43,East,90,0.0,1.0,51,0.00,,,0.00,meteohub,2013-08-31 13:15:00,
2013-08-31 08:20:00,78.8,59.2,28.43,East,90,0.0,1.0,51,0.00,,,0.00,meteohub,2013-08-31 13:20:00,
2013-08-31 08:25:00,79.3,58.5,28.43,SE,135,1.0,1.0,49,0.00,,,0.00,meteohub,2013-08-31 13:25:00,
2013-08-31 08:30:00,80.1,58.6,28.43,SE,135,1.0,1.0,48,0.00,,,0.00,meteohub,2013-08-31 13:30:00,
2013-08-31 08:35:00,80.8,58.6,28.43,South,180,1.0,1.0,47,0.00,,,0.00,meteohub,2013-08-31 13:35:00,
2013-08-31 08:40:00,81.1,58.5,28.43,South,180,2.0,2.0,46,0.00,,,0.00,meteohub,2013-08-31 13:40:00,
2013-08-31 08:45:00,82.0,58.6,28.43,SE,135,2.0,4.0,45,0.00,,,0.00,meteohub,2013-08-31 13:45:00,
2013-08-31 08:50:00,82.8,58.6,28.43,South,180,3.0,4.0,44,0.00,,,0.00,meteohub,2013-08-31 13:50:00,
2013-08-31 08:55:00,83.7,58.8,28.43,South,180,0.0,5.0,43,0.00,,,0.00,meteohub,2013-08-31 13:55:00,
2013-08-31 09:00:00,83.8,59.0,28.43,West,270,3.0,5.0,43,0.00,,,0.00,meteohub,2013-08-31 14:00:00,
2013-08-31 09:05:00,84.9,58.6,28.43,South,180,4.0,5.0,41,0.00,,,0.00,meteohub,2013-08-31 14:05:00,
2013-08-31 09:10:00,85.1,58.8,28.43,SW,225,4.0,6.0,41,0.00,,,0.00,meteohub,2013-08-31 14:10:00,
2013-08-31 09:15:00,85.5,58.5,28.43,West,270,4.0,7.0,40,0.00,,,0.00,meteohub,2013-08-31 14:15:00,
2013-08-31 09:20:00,85.8,57.9,28.44,SW,225,6.0,8.0,39,0.00,,,0.00,meteohub,2013-08-31 14:20:00,
2013-08-31 09:25:00,86.2,58.3,28.43,SW,225,6.0,8.0,39,0.00,,,0.00,meteohub,2013-08-31 14:25:00,
2013-08-31 09:30:00,86.4,58.5,28.43,SE,135,5.0,8.0,39,0.00,,,0.00,meteohub,2013-08-31 14:30:00,
2013-08-31 09:35:00,87.3,57.7,28.43,South,180,5.0,8.0,37,0.00,,,0.00,meteohub,2013-08-31 14:35:00,
2013-08-31 09:40:00,87.6,57.4,28.43,SW,225,7.0,8.0,36,0.00,,,0.00,meteohub,2013-08-31 14:40:00,
2013-08-31 09:45:00,88.2,57.9,28.43,SW,225,8.0,8.0,36,0.00,,,0.00,meteohub,2013-08-31 14:45:00,
2013-08-31 09:50:00,88.5,57.4,28.44,SW,225,8.0,11.0,35,0.00,,,0.00,meteohub,2013-08-31 14:50:00,
2013-08-31 09:55:00,89.1,57.0,28.43,SW,225,9.0,11.0,34,0.00,,,0.00,meteohub,2013-08-31 14:55:00,
2013-08-31 10:00:00,89.8,54.1,28.43,West,270,11.0,11.0,30,0.00,,,0.00,meteohub,2013-08-31 15:00:00,
2013-08-31 10:05:00,90.7,55.0,28.43,SW,225,8.0,12.0,30,0.00,,,0.00,meteohub,2013-08-31 15:05:00,
2013-08-31 10:11:00,91.0,54.3,28.43,SW,225,8.0,12.0,29,0.00,,,0.00,meteohub,2013-08-31 15:11:00,
2013-08-31 10:16:00,91.2,54.5,28.43,SW,225,7.0,12.0,29,0.00,,,0.00,meteohub,2013-08-31 15:16:00,
2013-08-31 10:20:00,91.8,55.0,28.43,SW,225,9.0,11.0,29,0.00,,,0.00,meteohub,2013-08-31 15:20:00,
2013-08-31 10:25:00,92.5,53.6,28.43,West,270,10.0,11.0,27,0.00,,,0.00,meteohub,2013-08-31 15:25:00,
2013-08-31 10:31:00,92.5,54.7,28.43,SW,225,6.0,11.0,28,0.00,,,0.00,meteohub,2013-08-31 15:31:00,
2013-08-31 10:36:00,92.8,54.9,28.43,SW,225,7.0,11.0,28,0.00,,,0.00,meteohub,2013-08-31 15:36:00,
2013-08-31 10:41:00,93.2,54.3,28.43,NW,315,6.0,10.0,27,0.00,,,0.00,meteohub,2013-08-31 15:41:00,
2013-08-31 10:46:00,93.9,52.7,28.43,West,270,11.0,11.0,25,0.00,,,0.00,meteohub,2013-08-31 15:46:00,
2013-08-31 10:51:00,94.5,52.2,28.43,West,270,5.0,11.0,24,0.00,,,0.00,meteohub,2013-08-31 15:51:00,
2013-08-31 10:56:00,95.2,51.6,28.43,SW,225,7.0,11.0,23,0.00,,,0.00,meteohub,2013-08-31 15:56:00,
2013-08-31 11:01:00,95.2,51.6,28.43,West,270,8.0,11.0,23,0.00,,,0.00,meteohub,2013-08-31 16:01:00,
2013-08-31 11:06:00,95.7,53.2,28.43,West,270,4.0,10.0,24,0.00,,,0.00,meteohub,2013-08-31 16:06:00,
2013-08-31 11:11:00,96.1,48.6,28.43,West,270,8.0,10.0,20,0.00,,,0.00,meteohub,2013-08-31 16:11:00,
2013-08-31 11:16:00,96.6,51.6,28.42,NW,315,6.0,9.0,22,0.00,,,0.00,meteohub,2013-08-31 16:16:00,
2013-08-31 11:21:00,96.8,50.4,28.42,SW,225,8.0,9.0,21,0.00,,,0.00,meteohub,2013-08-31 16:21:00,
2013-08-31 11:26:00,97.3,50.9,28.42,WSW,248,4.0,9.0,21,0.00,,,0.00,meteohub,2013-08-31 16:26:00,
2013-08-31 11:31:00,97.7,49.8,28.42,SW,225,6.0,10.0,20,0.00,,,0.00,meteohub,2013-08-31 16:31:00,
2013-08-31 11:36:00,98.1,50.2,28.42,West,270,2.0,10.0,20,0.00,,,0.00,meteohub,2013-08-31 16:36:00,
2013-08-31 11:41:00,98.2,48.9,28.41,SW,225,7.0,10.0,19,0.00,,,0.00,meteohub,2013-08-31 16:41:00,
2013-08-31 11:46:00,98.8,49.3,28.42,SW,225,9.0,10.0,19,0.00,,,0.00,meteohub,2013-08-31 16:46:00,
2013-08-31 11:51:00,98.6,49.3,28.41,SW,225,6.0,9.0,19,0.00,,,0.00,meteohub,2013-08-31 16:51:00,
2013-08-31 11:56:00,99.1,49.6,28.41,West,270,1.0,9.0,19,0.00,,,0.00,meteohub,2013-08-31 16:56:00,
2013-08-31 12:01:00,100.0,48.9,28.40,SSE,158,3.0,9.0,18,0.00,,,0.00,meteohub,2013-08-31 17:01:00,
2013-08-31 12:06:00,99.5,46.9,28.41,WSW,248,8.0,9.0,17,0.00,,,0.00,meteohub,2013-08-31 17:06:00,
2013-08-31 12:11:00,99.5,48.6,28.41,NNW,338,11.0,15.0,18,0.00,,,0.00,meteohub,2013-08-31 17:11:00,
2013-08-31 12:16:00,100.0,48.9,28.40,West,270,11.0,15.0,18,0.00,,,0.00,meteohub,2013-08-31 17:16:00,
2013-08-31 12:21:00,100.6,49.3,28.40,SW,225,6.0,12.0,18,0.00,,,0.00,meteohub,2013-08-31 17:21:00,
2013-08-31 12:26:00,100.4,46.0,28.40,South,180,1.0,14.0,16,0.00,,,0.00,meteohub,2013-08-31 17:26:00,
2013-08-31 12:31:00,101.5,45.3,28.40,West,270,7.0,14.0,15,0.00,,,0.00,meteohub,2013-08-31 17:31:00,
2013-08-31 12:36:00,101.5,45.3,28.40,West,270,3.0,14.0,15,0.00,,,0.00,meteohub,2013-08-31 17:36:00,
2013-08-31 12:41:00,101.8,45.5,28.40,SE,135,7.0,13.0,15,0.00,,,0.00,meteohub,2013-08-31 17:41:00,
2013-08-31 12:46:00,102.2,45.9,28.39,South,180,8.0,13.0,15,0.00,,,0.00,meteohub,2013-08-31 17:46:00,
2013-08-31 12:51:00,102.4,44.1,28.40,SW,225,10.0,11.0,14,0.00,,,0.00,meteohub,2013-08-31 17:51:00,
2013-08-31 12:56:00,102.7,42.4,28.39,SW,225,10.0,11.0,13,0.00,,,0.00,meteohub,2013-08-31 17:56:00,
2013-08-31 13:01:00,102.6,44.2,28.38,West,270,15.0,15.0,14,0.00,,,0.00,meteohub,2013-08-31 18:01:00,
2013-08-31 13:06:00,102.4,44.1,28.39,West,270,13.0,15.0,14,0.00,,,0.00,meteohub,2013-08-31 18:06:00,
2013-08-31 13:11:00,102.4,44.1,28.39,SW,225,7.0,15.0,14,0.00,,,0.00,meteohub,2013-08-31 18:11:00,
2013-08-31 13:16:00,102.7,44.4,28.38,SE,135,4.0,15.0,14,0.00,,,0.00,meteohub,2013-08-31 18:16:00,
2013-08-31 13:21:00,102.6,44.2,28.38,South,180,4.0,15.0,14,0.00,,,0.00,meteohub,2013-08-31 18:21:00,
2013-08-31 13:26:00,103.1,44.6,28.38,West,270,1.0,11.0,14,0.00,,,0.00,meteohub,2013-08-31 18:26:00,
2013-08-31 13:31:00,104.0,41.4,28.38,West,270,2.0,11.0,12,0.00,,,0.00,meteohub,2013-08-31 18:31:00,
2013-08-31 13:36:00,104.2,41.5,28.38,West,270,9.0,11.0,12,0.00,,,0.00,meteohub,2013-08-31 18:36:00,
2013-08-31 13:41:00,104.2,41.5,28.38,SW,225,8.0,11.0,12,0.00,,,0.00,meteohub,2013-08-31 18:41:00,
2013-08-31 13:46:00,103.5,45.0,28.38,West,270,2.0,11.0,14,0.00,,,0.00,meteohub,2013-08-31 18:46:00,
2013-08-31 13:51:00,104.0,41.4,28.38,North,0,2.0,9.0,12,0.00,,,0.00,meteohub,2013-08-31 18:51:00,
2013-08-31 13:56:00,104.5,41.7,28.37,West,270,4.0,8.0,12,0.00,,,0.00,meteohub,2013-08-31 18:56:00,
2013-08-31 14:01:00,105.1,42.3,28.36,South,180,5.0,8.0,12,0.00,,,0.00,meteohub,2013-08-31 19:01:00,
2013-08-31 14:06:00,104.9,42.1,28.37,NE,45,13.0,13.0,12,0.00,,,0.00,meteohub,2013-08-31 19:06:00,
2013-08-31 14:11:00,104.9,42.1,28.37,SE,135,4.0,15.0,12,0.00,,,0.00,meteohub,2013-08-31 19:11:00,
2013-08-31 14:16:00,105.4,40.3,28.36,SE,135,1.0,15.0,11,0.00,,,0.00,meteohub,2013-08-31 19:16:00,
2013-08-31 14:21:00,106.2,40.8,28.36,SW,225,5.0,13.0,11,0.00,,,0.00,meteohub,2013-08-31 19:21:00,
2013-08-31 14:26:00,106.0,40.6,28.36,SW,225,12.0,12.0,11,0.00,,,0.00,meteohub,2013-08-31 19:26:00,
2013-08-31 14:31:00,105.3,40.1,28.36,South,180,2.0,12.0,11,0.00,,,0.00,meteohub,2013-08-31 19:31:00,
2013-08-31 14:36:00,105.3,40.1,28.36,West,270,3.0,12.0,11,0.00,,,0.00,meteohub,2013-08-31 19:36:00,
2013-08-31 14:41:00,105.4,40.3,28.35,NW,315,3.0,12.0,11,0.00,,,0.00,meteohub,2013-08-31 19:41:00,
2013-08-31 14:46:00,105.6,42.6,28.35,East,90,1.0,6.0,12,0.00,,,0.00,meteohub,2013-08-31 19:46:00,
2013-08-31 14:51:00,107.1,41.5,28.35,SE,135,3.0,5.0,11,0.00,,,0.00,meteohub,2013-08-31 19:51:00,
2013-08-31 14:56:00,107.4,39.2,28.35,SW,225,2.0,4.0,10,0.00,,,0.00,meteohub,2013-08-31 19:56:00,
2013-08-31 15:01:00,106.7,38.7,28.35,South,180,8.0,8.0,10,0.00,,,0.00,meteohub,2013-08-31 20:01:00,
2013-08-31 15:06:00,106.0,38.1,28.35,West,270,12.0,12.0,10,0.00,,,0.00,meteohub,2013-08-31 20:06:00,
2013-08-31 15:11:00,104.9,39.7,28.35,SE,135,7.0,13.0,11,0.00,,,0.00,meteohub,2013-08-31 20:11:00,
2013-08-31 15:16:00,105.4,40.3,28.34,WSW,248,5.0,13.0,11,0.00,,,0.00,meteohub,2013-08-31 20:16:00,
2013-08-31 15:22:00,106.2,99.9,28.34,West,270,4.0,13.0,0,0.00,,,0.00,meteohub,2013-08-31 20:22:00,
2013-08-31 15:27:00,106.2,99.9,28.34,West,270,9.0,10.0,0,0.00,,,0.00,meteohub,2013-08-31 20:27:00,
2013-08-31 15:32:00,106.7,38.7,28.34,West,270,2.0,9.0,10,0.00,,,0.00,meteohub,2013-08-31 20:32:00,
2013-08-31 15:37:00,106.7,99.9,28.33,East,90,1.0,9.0,0,0.00,,,0.00,meteohub,2013-08-31 20:37:00,
2013-08-31 15:42:00,107.4,99.9,28.33,SE,135,2.0,9.0,0,0.00,,,0.00,meteohub,2013-08-31 20:42:00,
2013-08-31 15:47:00,107.8,99.9,28.33,SE,135,4.0,4.0,0,0.00,,,0.00,meteohub,2013-08-31 20:47:00,
2013-08-31 15:52:00,108.1,99.9,28.33,East,90,2.0,5.0,0,0.00,,,0.00,meteohub,2013-08-31 20:52:00,
2013-08-31 15:57:00,107.6,99.9,28.32,SW,225,7.0,10.0,0,0.00,,,0.00,meteohub,2013-08-31 20:57:00,
2013-08-31 16:02:00,107.2,39.2,28.33,West,270,4.0,10.0,10,0.00,,,0.00,meteohub,2013-08-31 21:02:00,
2013-08-31 16:07:00,107.2,99.9,28.33,West,270,2.0,10.0,0,0.00,,,0.00,meteohub,2013-08-31 21:07:00,
2013-08-31 16:12:00,107.2,99.9,28.32,NW,315,1.0,9.0,0,0.00,,,0.00,meteohub,2013-08-31 21:12:00,
2013-08-31 16:17:00,107.1,99.9,28.32,East,90,1.0,7.0,0,0.00,,,0.00,meteohub,2013-08-31 21:17:00,
2013-08-31 16:22:00,107.4,99.9,28.32,West,270,1.0,5.0,0,0.00,,,0.00,meteohub,2013-08-31 21:22:00,
2013-08-31 16:27:00,107.8,99.9,28.32,SW,225,3.0,7.0,0,0.00,,,0.00,meteohub,2013-08-31 21:27:00,
2013-08-31 16:32:00,107.6,99.9,28.32,SE,135,4.0,11.0,0,0.00,,,0.00,meteohub,2013-08-31 21:32:00,
2013-08-31 16:37:00,107.4,99.9,28.32,SE,135,6.0,11.0,0,0.00,,,0.00,meteohub,2013-08-31 21:37:00,
2013-08-31 16:42:00,107.1,99.9,28.32,NE,45,9.0,11.0,0,0.00,,,0.00,meteohub,2013-08-31 21:42:00,
2013-08-31 16:47:00,107.4,99.9,28.32,North,0,4.0,11.0,0,0.00,,,0.00,meteohub,2013-08-31 21:47:00,
2013-08-31 16:52:00,106.2,99.9,28.31,North,0,1.0,11.0,0,0.00,,,0.00,meteohub,2013-08-31 21:52:00,
2013-08-31 16:57:00,105.4,99.9,28.31,SW,225,1.0,11.0,0,0.00,,,0.00,meteohub,2013-08-31 21:57:00,
2013-08-31 17:02:00,105.3,37.6,28.31,East,90,6.0,7.0,10,0.00,,,0.00,meteohub,2013-08-31 22:02:00,
2013-08-31 17:07:00,106.2,99.9,28.31,North,0,6.0,7.0,0,0.00,,,0.00,meteohub,2013-08-31 22:07:00,
2013-08-31 17:12:00,106.9,99.9,28.31,SE,135,7.0,13.0,0,0.00,,,0.00,meteohub,2013-08-31 22:12:00,
2013-08-31 17:17:00,107.6,99.9,28.31,East,90,5.0,13.0,0,0.00,,,0.00,meteohub,2013-08-31 22:17:00,
2013-08-31 17:22:00,106.9,99.9,28.30,SW,225,6.0,7.0,0,0.00,,,0.00,meteohub,2013-08-31 22:22:00,
2013-08-31 17:27:00,107.2,99.9,28.30,SE,135,1.0,12.0,0,0.00,,,0.00,meteohub,2013-08-31 22:27:00,
2013-08-31 17:32:00,107.4,99.9,28.30,South,180,4.0,12.0,0,0.00,,,0.00,meteohub,2013-08-31 22:32:00,
2013-08-31 17:37:00,107.8,99.9,28.30,SE,135,5.0,11.0,0,0.00,,,0.00,meteohub,2013-08-31 22:37:00,
2013-08-31 17:42:00,107.6,99.9,28.30,South,180,11.0,11.0,0,0.00,,,0.00,meteohub,2013-08-31 22:42:00,
2013-08-31 17:47:00,106.7,99.9,28.30,SSE,158,4.0,14.0,0,0.00,,,0.00,meteohub,2013-08-31 22:47:00,
2013-08-31 17:52:00,106.9,99.9,28.30,East,90,5.0,14.0,0,0.00,,,0.00,meteohub,2013-08-31 22:52:00,
2013-08-31 17:57:00,106.7,99.9,28.30,SE,135,3.0,14.0,0,0.00,,,0.00,meteohub,2013-08-31 22:57:00,
2013-08-31 18:02:00,106.7,99.9,28.30,SE,135,5.0,10.0,0,0.00,,,0.00,meteohub,2013-08-31 23:02:00,
2013-08-31 18:07:00,106.3,99.9,28.30,South,180,8.0,9.0,0,0.00,,,0.00,meteohub,2013-08-31 23:07:00,
2013-08-31 18:12:00,106.5,99.9,28.30,South,180,4.0,9.0,0,0.00,,,0.00,meteohub,2013-08-31 23:12:00,
2013-08-31 18:17:00,106.3,99.9,28.30,South,180,1.0,9.0,0,0.00,,,0.00,meteohub,2013-08-31 23:17:00,
2013-08-31 18:22:00,106.3,99.9,28.30,South,180,4.0,8.0,0,0.00,,,0.00,meteohub,2013-08-31 23:22:00,
2013-08-31 18:27:00,105.8,99.9,28.30,North,0,4.0,8.0,0,0.00,,,0.00,meteohub,2013-08-31 23:27:00,
2013-08-31 18:32:00,106.0,99.9,28.30,SE,135,4.0,8.0,0,0.00,,,0.00,meteohub,2013-08-31 23:32:00,
2013-08-31 18:37:00,105.6,99.9,28.30,SE,135,6.0,8.0,0,0.00,,,0.00,meteohub,2013-08-31 23:37:00,
2013-08-31 18:42:00,105.3,99.9,28.30,SE,135,6.0,8.0,0,0.00,,,0.00,meteohub,2013-08-31 23:42:00,
2013-08-31 18:47:00,104.9,99.9,28.30,SW,225,2.0,10.0,0,0.00,,,0.00,meteohub,2013-08-31 23:47:00,
2013-08-31 18:52:00,104.9,99.9,28.29,South,180,8.0,10.0,0,0.00,,,0.00,meteohub,2013-08-31 23:52:00,
2013-08-31 18:57:00,104.7,99.9,28.30,South,180,4.0,10.0,0,0.00,,,0.00,meteohub,2013-08-31 23:57:00,
2013-08-31 19:02:00,104.7,99.9,28.30,East,90,4.0,8.0,0,0.00,,,0.00,meteohub,2013-09-01 00:02:00,
2013-08-31 19:07:00,104.4,37.0,28.30,SE,135,1.0,8.0,10,0.00,,,0.00,meteohub,2013-09-01 00:07:00,
2013-08-31 19:12:00,104.5,37.0,28.30,East,90,8.0,8.0,10,0.00,,,0.00,meteohub,2013-09-01 00:12:00,
2013-08-31 19:17:00,103.8,36.5,28.30,East,90,5.0,9.0,10,0.00,,,0.00,meteohub,2013-09-01 00:17:00,
2013-08-31 19:22:00,103.1,38.5,28.30,SE,135,2.0,9.0,11,0.00,,,0.00,meteohub,2013-09-01 00:22:00,
2013-08-31 19:27:00,102.7,38.1,28.30,East,90,1.0,9.0,11,0.00,,,0.00,meteohub,2013-09-01 00:27:00,
2013-08-31 19:32:00,102.9,38.3,28.30,East,90,1.0,8.0,11,0.00,,,0.00,meteohub,2013-09-01 00:32:00,
2013-08-31 19:37:00,102.2,37.8,28.30,SE,135,1.0,7.0,11,0.00,,,0.00,meteohub,2013-09-01 00:37:00,
2013-08-31 19:42:00,101.8,37.4,28.30,East,90,1.0,4.0,11,0.00,,,0.00,meteohub,2013-09-01 00:42:00,
2013-08-31 19:47:00,101.5,39.4,28.30,East,90,2.0,4.0,12,0.00,,,0.00,meteohub,2013-09-01 00:47:00,
2013-08-31 19:52:00,100.6,38.7,28.31,NE,45,2.0,4.0,12,0.00,,,0.00,meteohub,2013-09-01 00:52:00,
2013-08-31 19:57:00,100.0,40.5,28.30,SW,225,1.0,4.0,13,0.00,,,0.00,meteohub,2013-09-01 00:57:00,
2013-08-31 20:02:00,99.7,42.1,28.31,East,90,4.0,6.0,14,0.00,,,0.00,meteohub,2013-09-01 01:02:00,
2013-08-31 20:07:00,98.8,41.4,28.31,SE,135,1.0,6.0,14,0.00,,,0.00,meteohub,2013-09-01 01:07:00,
2013-08-31 20:12:00,98.6,43.0,28.31,East,90,1.0,6.0,15,0.00,,,0.00,meteohub,2013-09-01 01:12:00,
2013-08-31 20:17:00,97.9,42.4,28.31,NW,315,3.0,4.0,15,0.00,,,0.00,meteohub,2013-09-01 01:17:00,
2013-08-31 20:22:00,97.5,42.1,28.31,SSE,158,1.0,4.0,15,0.00,,,0.00,meteohub,2013-09-01 01:22:00,
2013-08-31 20:27:00,97.3,43.7,28.31,South,180,2.0,4.0,16,0.00,,,0.00,meteohub,2013-09-01 01:27:00,
2013-08-31 20:32:00,96.8,43.2,28.31,East,90,1.0,5.0,16,0.00,,,0.00,meteohub,2013-09-01 01:32:00,
2013-08-31 20:37:00,96.3,42.8,28.31,South,180,2.0,5.0,16,0.00,,,0.00,meteohub,2013-09-01 01:37:00,
2013-08-31 20:42:00,95.9,44.1,28.31,SW,225,4.0,4.0,17,0.00,,,0.00,meteohub,2013-09-01 01:42:00,
2013-08-31 20:47:00,95.9,45.5,28.31,NE,45,1.0,4.0,18,0.00,,,0.00,meteohub,2013-09-01 01:47:00,
2013-08-31 20:52:00,95.5,45.3,28.32,SW,225,1.0,4.0,18,0.00,,,0.00,meteohub,2013-09-01 01:52:00,
2013-08-31 20:57:00,95.4,45.1,28.32,North,0,2.0,4.0,18,0.00,,,0.00,meteohub,2013-09-01 01:57:00,
2013-08-31 21:02:00,95.0,44.8,28.32,South,180,2.0,5.0,18,0.00,,,0.00,meteohub,2013-09-01 02:02:00,
2013-08-31 21:07:00,94.5,45.9,28.32,NE,45,3.0,5.0,19,0.00,,,0.00,meteohub,2013-09-01 02:07:00,
2013-08-31 21:12:00,94.5,45.9,28.32,SE,135,4.0,5.0,19,0.00,,,0.00,meteohub,2013-09-01 02:12:00,
2013-08-31 21:17:00,94.1,45.5,28.32,East,90,2.0,5.0,19,0.00,,,0.00,meteohub,2013-09-01 02:17:00,
2013-08-31 21:22:00,93.9,46.8,28.32,East,90,4.0,5.0,20,0.00,,,0.00,meteohub,2013-09-01 02:22:00,
2013-08-31 21:27:00,93.6,46.4,28.33,East,90,3.0,4.0,20,0.00,,,0.00,meteohub,2013-09-01 02:27:00,
2013-08-31 21:32:00,93.4,47.7,28.33,East,90,4.0,5.0,21,0.00,,,0.00,meteohub,2013-09-01 02:32:00,
2013-08-31 21:37:00,93.2,47.5,28.33,East,90,4.0,5.0,21,0.00,,,0.00,meteohub,2013-09-01 02:37:00,
2013-08-31 21:42:00,93.4,47.7,28.33,SSE,158,2.0,6.0,21,0.00,,,0.00,meteohub,2013-09-01 02:42:00,
2013-08-31 21:47:00,93.2,47.5,28.33,South,180,1.0,6.0,21,0.00,,,0.00,meteohub,2013-09-01 02:47:00,
2013-08-31 21:52:00,92.8,48.4,28.33,SW,225,2.0,6.0,22,0.00,,,0.00,meteohub,2013-09-01 02:52:00,
2013-08-31 21:57:00,92.3,48.0,28.33,South,180,2.0,6.0,22,0.00,,,0.00,meteohub,2013-09-01 02:57:00,
2013-08-31 22:02:00,91.8,48.7,28.33,East,90,4.0,6.0,23,0.00,,,0.00,meteohub,2013-09-01 03:02:00,
2013-08-31 22:07:00,91.4,48.4,28.33,South,180,2.0,4.0,23,0.00,,,0.00,meteohub,2013-09-01 03:07:00,
2013-08-31 22:12:00,91.2,49.5,28.33,East,90,2.0,4.0,24,0.00,,,0.00,meteohub,2013-09-01 03:12:00,
2013-08-31 22:17:00,91.2,49.5,28.33,SE,135,4.0,4.0,24,0.00,,,0.00,meteohub,2013-09-01 03:17:00,
2013-08-31 22:22:00,91.4,49.5,28.33,South,180,4.0,5.0,24,0.00,,,0.00,meteohub,2013-09-01 03:22:00,
2013-08-31 22:27:00,91.2,49.5,28.33,NW,315,1.0,5.0,24,0.00,,,0.00,meteohub,2013-09-01 03:27:00,
2013-08-31 22:32:00,91.2,49.5,28.33,South,180,1.0,5.0,24,0.00,,,0.00,meteohub,2013-09-01 03:32:00,
2013-08-31 22:37:00,91.0,49.3,28.33,East,90,1.0,5.0,24,0.00,,,0.00,meteohub,2013-09-01 03:37:00,
2013-08-31 22:42:00,90.7,48.9,28.33,SW,225,1.0,4.0,24,0.00,,,0.00,meteohub,2013-09-01 03:42:00,
2013-08-31 22:47:00,90.1,49.6,28.32,NE,45,5.0,5.0,25,0.00,,,0.00,meteohub,2013-09-01 03:47:00,
2013-08-31 22:52:00,90.1,49.6,28.33,SE,135,2.0,5.0,25,0.00,,,0.00,meteohub,2013-09-01 03:52:00,
2013-08-31 22:57:00,90.0,50.5,28.33,South,180,2.0,5.0,26,0.00,,,0.00,meteohub,2013-09-01 03:57:00,
2013-08-31 23:01:00,89.4,50.0,28.33,South,180,4.0,5.0,26,0.00,,,0.00,meteohub,2013-09-01 04:01:00,
2013-08-31 23:02:00,89.6,50.2,28.33,South,180,6.0,6.0,26,0.00,,,0.00,meteohub,2013-09-01 04:02:00,
2013-08-31 23:03:00,89.1,50.7,28.33,SE,135,1.0,5.0,27,0.00,,,0.00,meteohub,2013-09-01 04:03:00,
2013-08-31 23:08:00,88.5,50.4,28.33,NE,45,1.0,6.0,27,0.00,,,0.00,meteohub,2013-09-01 04:08:00,
2013-08-31 23:13:00,88.2,50.9,28.33,SE,135,1.0,6.0,28,0.00,,,0.00,meteohub,2013-09-01 04:13:00,
2013-08-31 23:18:00,87.8,51.6,28.33,South,180,1.0,6.0,29,0.00,,,0.00,meteohub,2013-09-01 04:18:00,
2013-08-31 23:23:00,87.3,51.1,28.33,SE,135,1.0,4.0,29,0.00,,,0.00,meteohub,2013-09-01 04:23:00,
2013-08-31 23:28:00,87.6,51.4,28.33,SE,135,4.0,4.0,29,0.00,,,0.00,meteohub,2013-09-01 04:28:00,
2013-08-31 23:33:00,87.8,51.6,28.32,SE,135,4.0,4.0,29,0.00,,,0.00,meteohub,2013-09-01 04:33:00,
2013-08-31 23:38:00,87.6,51.4,28.32,SE,135,3.0,4.0,29,0.00,,,0.00,meteohub,2013-09-01 04:38:00,
2013-08-31 23:43:00,87.6,51.4,28.32,SE,135,4.0,4.0,29,0.00,,,0.00,meteohub,2013-09-01 04:43:00,
2013-08-31 23:48:00,87.8,50.7,28.32,SSW,203,4.0,4.0,28,0.00,,,0.00,meteohub,2013-09-01 04:48:00,
2013-08-31 23:53:00,87.6,51.4,28.32,SE,135,1.0,4.0,29,0.00,,,0.00,meteohub,2013-09-01 04:53:00,
2013-08-31 23:58:00,87.1,50.9,28.32,SE,135,1.0,4.0,29,0.00,,,0.00,meteohub,2013-09-01 04:58:00,